Weather History for Volk, WI

Change the Weather History Date:

Sunday, January 19, 2014

  Actual Average Record
Temperature  
Mean Temperature 25 °F -  
Max Temperature 35 °F 21 °F - (-1)
Min Temperature 15 °F 9 °F - (-1)
Degree Days  
Heating Degree Days 40    
Moisture  
Dew Point 22 °F    
Average Humidity 76    
Maximum Humidity 87    
Minimum Humidity 60    
Precipitation  
Precipitation 0.00 in - - ()
Sea Level Pressure  
Sea Level Pressure 29.59 in    
Wind  
Wind Speed 11 mph (West)    
Max Wind Speed 16 mph    
Max Gust Speed 24 mph    
Visibility 10 miles    
Events      
Averages and records for this station are not official NWS values.
T = Trace of Precipitation, MM = Missing Value Source: NWS Daily Summary

Daily Weather History Graph

Daily Weather History Graph

Search for Another Location

Airport:

Trip Planner

Search our weather history database for the weather conditions in past years. The results will help you decide how hot, cold, wet, or windy it might be!

Date:

Astronomy

Jan. 19, 2014 Rise Set
Actual Time 7:29 AM CST 4:54 PM CST
Civil Twilight 6:58 AM CST 5:25 PM CST
Nautical Twilight 6:22 AM CST 6:01 PM CST
Astronomical Twilight 5:48 AM CST 6:35 PM CST
Moon 8:41 PM CST (1/19) 8:51 AM CST (1/19)
Length of Visible Light 10h 27m
Length of Day
9h 24m
Waning Gibbous, 89% of the Moon is Illuminated
Jan 19
Waning Gibbous
Jan 23
Last Quarter
Jan 30
New
Feb 6
First Quarter
Feb 14
Full

Hourly Weather History & Observations

Time (CST) Temp. Windchill Dew Point Humidity Pressure Visibility Wind Dir Wind Speed Gust Speed Precip Events Conditions
12:58 AM 15.8 °F 3.4 °F 11.8 °F 84% 29.77 in 10.0 mi WSW 10.4 mph - -   Mostly Cloudy
1:58 AM 16.3 °F 5.7 °F 11.8 °F 82% 29.76 in 10.0 mi SW 8.1 mph - -   Overcast
2:58 AM 18.5 °F 7.5 °F 13.1 °F 79% 29.72 in 10.0 mi WSW 9.2 mph - -   Overcast
3:58 AM 19.8 °F 7.7 °F 14.2 °F 79% 29.69 in 10.0 mi WSW 11.5 mph - -   Mostly Cloudy
4:58 AM 20.5 °F 9.2 °F 15.6 °F 81% 29.65 in 10.0 mi WSW 10.4 mph - -   Mostly Cloudy
5:58 AM 20.1 °F 7.5 °F 16.0 °F 84% 29.62 in 10.0 mi SW 12.7 mph - -   Clear
6:58 AM 19.8 °F 6.5 °F 15.6 °F 84% 29.60 in 10.0 mi WSW 13.8 mph - -   Clear
7:58 AM 21.2 °F 8.3 °F 15.8 °F 80% 29.60 in 10.0 mi WSW 13.8 mph - N/A   Partly Cloudy
8:58 AM 24.8 °F 13.4 °F 17.6 °F 74% 29.60 in 10.0 mi WSW 12.7 mph - N/A   Partly Cloudy
9:58 AM 28.4 °F 18.5 °F 19.4 °F 69% 29.59 in 10.0 mi WSW 11.5 mph - N/A   Partly Cloudy
10:58 AM 30.2 °F 20.2 °F 21.2 °F 69% 29.59 in 10.0 mi WSW 12.7 mph - N/A   Mostly Cloudy
11:58 AM 32.0 °F 23.6 °F 21.2 °F 64% 29.57 in 10.0 mi West 10.4 mph - N/A   Mostly Cloudy
12:58 PM 33.8 °F 27.0 °F 23.0 °F 65% 29.54 in 10.0 mi West 8.1 mph - N/A   Mostly Cloudy
1:58 PM 35.6 °F 28.6 °F 23.0 °F 60% 29.49 in 10.0 mi SW 9.2 mph - N/A   Mostly Cloudy
2:58 PM 35.6 °F 27.1 °F 23.0 °F 60% 29.48 in 10.0 mi WSW 12.7 mph - N/A   Mostly Cloudy
3:58 PM 33.8 °F 25.8 °F 23.9 °F 67% 29.51 in 10.0 mi WSW 10.4 mph - -   Clear
4:58 PM 33.3 °F 25.1 °F 23.7 °F 68% 29.49 in 10.0 mi WSW 10.4 mph - -   Clear
5:58 PM 29.5 °F 21.8 °F 22.8 °F 76% 29.52 in 10.0 mi West 8.1 mph - -   Clear
6:58 PM 33.3 °F 26.4 °F 25.7 °F 74% 29.52 in 10.0 mi West 8.1 mph - -   Overcast
7:43 PM 32.0 °F 24.8 °F 26.6 °F 80% 29.49 in 10.0 mi WNW 8.1 mph - N/A   Overcast
7:58 PM 33.3 °F 26.4 °F 26.6 °F 77% 29.54 in 10.0 mi West 8.1 mph - -   Overcast
8:03 PM 32.0 °F 24.8 °F 26.6 °F 80% 29.49 in 10.0 mi West 8.1 mph - N/A   Overcast
8:18 PM 32.0 °F 24.2 °F 26.6 °F 80% 29.50 in 10.0 mi West 9.2 mph - N/A   Overcast
8:58 PM 33.4 °F 25.4 °F 27.3 °F 78% 29.56 in 10.0 mi WNW 10.4 mph - -   Overcast
9:58 PM 33.4 °F 23.9 °F 27.5 °F 79% 29.60 in 10.0 mi NW 13.8 mph - -   Overcast
10:13 PM 32.0 °F 21.2 °F 28.4 °F 87% 29.57 in 10.0 mi NNW 16.1 mph 24.2 mph N/A   Overcast
10:33 PM 32.0 °F 21.2 °F 26.6 °F 80% 29.59 in 10.0 mi NNW 16.1 mph - N/A   Overcast
10:58 PM 31.3 °F 22.7 °F 26.1 °F 81% 29.65 in 10.0 mi NNW 10.4 mph - -   Overcast
11:58 PM 28.9 °F 21.9 °F 25.5 °F 87% 29.67 in 10.0 mi WNW 6.9 mph - -   Overcast